Regional Weather Roundup
Issued by NWS

Home | Current Version | Previous Version | Graphics & Text | Print | Product List | Glossary Off
Versions: 1 2 3 4 5 6 7 8 9 10 11 12 13 14 15 16 17 18 19 20 21 22 23 24 25 26 27 28 29 30 31 32 33 34 35 36 37 38 39 40 41 42 43 44 45 46 47 48 49 50

022
ASUS43 KDMX 231203
RWRIA

WEATHER ROUNDUP FOR IOWA
NATIONAL WEATHER SERVICE DES MOINES IA
700 AM CDT SAT JUL 23 2016

NOTE: "FAIR" INDICATES FEW OR NO CLOUDS BELOW 12,000 FEET WITH NO
SIGNIFICANT WEATHER AND/OR OBSTRUCTIONS TO VISIBILITY.

* - THESE STATIONS ARE NOT NWS STATIONS...THUS NOT UNDER NWS
QUALITY CONTROL.  THEY ALSO DO NOT REPORT WEATHER SUCH
AS PRECIPITATION OR FOG.

IAZ001>003-012>014-020>022-031>034-043>046-231300-
   NORTHWEST IOWA

CITY           SKY/WX    TMP DP  RH WIND       PRES   REMARKS
CARROLL *      CLOUDY    77  75  94 VRB6      29.88R FOG
CHEROKEE *     CLOUDY    78  76  94 SE6       29.84F HX  80
DENISON *      CLOUDY    79  73  83 VRB7G14   29.85F HX  82
LE MARS *      CLOUDY    79  77  94 S7        29.85R HX  83
SHELDON *      MOCLDY    77  77 100 E3        29.85R
SIOUX CITY     LGT RAIN  79  75  87 SE12      29.79F HX  83
6HR MIN TEMP:  79; 6HR MAX TEMP:  84; 6HR PCP:  0.01;

SPENCER        CLOUDY    78  75  90 SE10      29.87S HX  81
6HR MIN TEMP:  77; 6HR MAX TEMP:  80;

STORM LAKE *   MOCLDY    77  75  94 SE5       29.88F
$$

IAZ055>058-069>071-079>083-090>094-231300-
   SOUTHWEST IOWA

CITY           SKY/WX    TMP DP  RH WIND       PRES   REMARKS
ATLANTIC *     PTCLDY    79  75  89 S10       29.89R HX  82
CLARINDA *       N/A     79  75  89 MISG      29.92R HX  82
COUNCIL BLFS * CLOUDY    77  70  78 S10       29.88F
CRESTON *      CLOUDY    79  75  89 S7        29.92S HX  82
HARLAN  *      CLOUDY    77  73  88 S10       29.91S
LAMONI         PTCLDY    77  76  96 S8        29.92F
6HR MIN TEMP:  77; 6HR MAX TEMP:  79;

RED OAK *      CLOUDY    77  73  88 CALM      29.90R
SHENANDOAH *   CLOUDY    77  72  83 S6        29.90R
$$

IAZ047>049-059>061-072>074-084-231300-
   CENTRAL IOWA

CITY           SKY/WX    TMP DP  RH WIND       PRES   REMARKS
AMES           CLOUDY    77  77 100 SE7       29.90F
6HR MIN TEMP:  77; 6HR MAX TEMP:  78; 6HR PCP: TRACE;

ANKENY *         N/A    N/A N/A N/A MISG        N/A
BOONE *        CLOUDY    77  77 100 SE9       29.88F
CHARITON *       N/A    N/A N/A N/A MISG        N/A
DES MOINES     CLOUDY    80  76  87 S8        29.89F HX  86
6HR MIN TEMP:  79; 6HR MAX TEMP:  82;

GRINNELL*      CLOUDY    76  74  92 S7        29.94S
KNOXVILLE *    CLOUDY    77  75  94 SE7       29.90F
MARSHALLTOWN   CLOUDY    77  76  96 E8        29.93R
6HR MIN TEMP:  75; 6HR MAX TEMP:  78;

NEWTON *       MOCLDY    77  77 100 SE3       29.92S
PERRY *          N/A     78  77  97 SE8       29.87F HX  80
$$

IAZ004>006-015-016-023>025-035-036-231300-
   NORTH CENTRAL IOWA

CITY           SKY/WX    TMP DP  RH WIND       PRES   REMARKS
ALGONA *       MOCLDY    79  77  94 SE9       29.89S HX  83
ESTHERVILLE    CLOUDY    76  76 100 SE8       29.88R
6HR MIN TEMP:  75; 6HR MAX TEMP:  78;

FORT DODGE *   CLOUDY    77  75  94 SE5       29.92R
MASON CITY     PTSUNNY   77  76  96 SE7       29.94S
6HR MIN TEMP:  76; 6HR MAX TEMP:  77;

FOREST CITY *  CLOUDY    75  75 100 SE6       29.92F FOG
IOWA FALLS *   CLOUDY    77  75  92 SE6       29.94S
$$

IAZ007>011-017>019-026>030-037>042-050>054-066-231300-
   NORTHEAST IOWA

CITY           SKY/WX    TMP DP  RH WIND       PRES   REMARKS
CEDAR RAPIDS   CLOUDY    76  76 100 SE6       29.95S FOG
6HR MIN TEMP:  75; 6HR MAX TEMP:  77;

CHARLES CITY * CLOUDY    77  77 100 E7        29.94F
CLINTON *      CLOUDY    76  75  97 E3        29.99R FOG
DECORAH *      PTSUNNY   77  77 100 SE5       29.95F FOG
DUBUQUE        CLOUDY    77  76  96 MISG      29.99F
6HR MIN TEMP:  75; 6HR MAX TEMP:  77;

MONTICELLO *   CLOUDY    77  75  94 CALM      29.97S
OELWEIN *      PTSUNNY   77  77 100 SE7       29.96F
WATERLOO       CLOUDY    77  75  93 SE8       29.93F
6HR MIN TEMP:  77; 6HR MAX TEMP:  80; 6HR PCP:  0.12;

$$

IAZ064-065-067-068-078-231300-
   EAST CENTRAL IOWA

CITY           SKY/WX    TMP DP  RH WIND       PRES   REMARKS
DAVENPORT      SUNNY     77  75  93 E3        29.98R
6HR MIN TEMP:  73; 6HR MAX TEMP:  77; 6HR PCP: TRACE;

IOWA CITY      CLOUDY    77  76  96 SE5       29.96F
6HR MIN TEMP:  75; 6HR MAX TEMP:  79;

MT. PLEASANT * SUNNY     78  78 100 S3        29.97R FOG     HX  81
MUSCATINE *    FOG       75  73  94 CALM      29.96S VSB 1/4
QUAD CITIES    SUNNY     78  74  87 E3        29.97R HX  81
6HR MIN TEMP:  75; 6HR MAX TEMP:  79;

$$

IAZ062-063-075>077-085>089-095>099-231300-
   SOUTHEAST IOWA

CITY           SKY/WX    TMP DP  RH WIND       PRES   REMARKS
BURLINGTON     MOSUNNY   76  76 100 SE5       29.97R
6HR MIN TEMP:  74; 6HR MAX TEMP:  77;

FAIRFIELD *    CLOUDY    77  75  94 S6        29.95S
KEOKUK *       SUNNY     77  75  94 CALM      29.97R
CENTERVILLE *    N/A     77  75  94 CALM      29.95F
OTTUMWA        CLOUDY    78  75  90 SE6       29.93F HX  81
6HR MIN TEMP:  76; 6HR MAX TEMP:  78;

WASHINGTON *   FOG       75  75 100 SE3       29.97R VSB 1/4
$$

ABBREVIATIONS USED IN REMARKS
   TC - TEMPERATURES IN CELSIUS
  WCI - WIND CHILL INDEX
   HX - HEAT INDEX
  VSB - VISIBILITY
$$





USA.gov is the U.S. government's official web portal to all federal, state and local government web resources and services.